owner,sensor,date,latitude,longitude,vertical_datum,wind_speed,wind_to_direction,wind_speed_of_gust,qcFlag 
TCOON,ioos:station:TCOON:003:1,2013-11-01T00:00:00Z,26.8015,-97.4706,0.0,4.2,55.0,6.3,'11111222,11111222,11111222' 
TCOON,ioos:station:TCOON:003:1,2013-11-01T00:06:00Z,26.8015,-97.4706,0.0,4.1,61.0,5.1,'11111222,11111222,11111222' 
TCOON,ioos:station:TCOON:003:1,2013-11-01T00:12:00Z,26.8015,-97.4706,0.0,4.5,75.0,5.0,'11111222,11111222,11111222' 
TCOON,ioos:station:TCOON:003:1,2013-11-01T00:18:00Z,26.8015,-97.4706,0.0,3.9,70.0,4.9,'11111222,11111222,11111222' 
TCOON,ioos:station:TCOON:003:1,2013-11-01T00:24:00Z,26.8015,-97.4706,0.0,3.7,65.0,4.9,'11111222,11111222,11111222' 
TCOON,ioos:station:TCOON:003:1,2013-11-01T00:30:00Z,26.8015,-97.4706,0.0,3.5,67.0,4.4,'11111222,11111222,11111222' 
TCOON,ioos:station:TCOON:003:1,2013-11-01T00:36:00Z,26.8015,-97.4706,0.0,3.1,60.0,4.1,'1111122,1111122,1111122' 
TCOON,ioos:station:TCOON:003:1,2013-11-01T00:42:00Z,26.8015,-97.4706,0.0,3.0,62.0,3.9,'11111222,11111222,11111222' 
TCOON,ioos:station:TCOON:003:1,2013-11-01T00:48:00Z,26.8015,-97.4706,0.0,3.2,68.0,4.0,'11111222,11111222,11111222' 
TCOON,ioos:station:TCOON:003:1,2013-11-01T00:54:00Z,26.8015,-97.4706,0.0,2.6,70.0,3.6,'1111122,1111122,1111122' 
TCOON,ioos:station:TCOON:003:1,2013-11-01T01:00:00Z,26.8015,-97.4706,0.0,2.7,76.0,3.2,'11111222,11111222,11111222' 
TCOON,ioos:station:TCOON:003:1,2013-11-01T01:06:00Z,26.8015,-97.4706,0.0,2.4,83.0,3.1,'11111222,11111222,11111222' 
TCOON,ioos:station:TCOON:003:1,2013-11-01T01:12:00Z,26.8015,-97.4706,0.0,2.3,78.0,2.8,'11111222,11111222,11111222' 
TCOON,ioos:station:TCOON:003:1,2013-11-01T01:18:00Z,26.8015,-97.4706,0.0,2.2,73.0,2.8,'11111222,11111222,11111222' 
TCOON,ioos:station:TCOON:003:1,2013-11-01T01:24:00Z,26.8015,-97.4706,0.0,2.1,77.0,2.6,'11111222,11111222,11111222' 
TCOON,ioos:station:TCOON:003:1,2013-11-01T01:30:00Z,26.8015,-97.4706,0.0,2.1,72.0,2.4,'11111222,11111222,11111222' 
TCOON,ioos:station:TCOON:003:1,2013-11-01T01:36:00Z,26.8015,-97.4706,0.0,1.9,67.0,2.4,'11111222,11111222,11111222' 
TCOON,ioos:station:TCOON:003:1,2013-11-01T01:42:00Z,26.8015,-97.4706,0.0,1.8,70.0,2.4,'11111222,11111222,11111222' 
TCOON,ioos:station:TCOON:003:1,2013-11-01T01:48:00Z,26.8015,-97.4706,0.0,2.1,70.0,2.6,'1111122,1111122,1111122' 
TCOON,ioos:station:TCOON:003:1,2013-11-01T01:54:00Z,26.8015,-97.4706,0.0,1.6,73.0,2.0,'11111222,11111222,11111222' 
TCOON,ioos:station:TCOON:003:1,2013-11-01T02:00:00Z,26.8015,-97.4706,0.0,1.7,73.0,2.1,'11111222,11111222,11111222' 
TCOON,ioos:station:TCOON:003:1,2013-11-01T02:06:00Z,26.8015,-97.4706,0.0,1.9,60.0,2.2,'11111222,11111222,11111222' 
TCOON,ioos:station:TCOON:003:1,2013-11-01T02:12:00Z,26.8015,-97.4706,0.0,1.9,56.0,2.2,'11111222,11111222,11111222' 
TCOON,ioos:station:TCOON:003:1,2013-11-01T02:18:00Z,26.8015,-97.4706,0.0,1.8,54.0,2.1,'11111222,11111222,11111222' 
TCOON,ioos:station:TCOON:003:1,2013-11-01T02:24:00Z,26.8015,-97.4706,0.0,1.5,55.0,1.8,'11111222,11111222,11111222' 
TCOON,ioos:station:TCOON:003:1,2013-11-01T02:30:00Z,26.8015,-97.4706,0.0,1.6,54.0,2.0,'11111222,11111222,11111222' 
TCOON,ioos:station:TCOON:003:1,2013-11-01T02:36:00Z,26.8015,-97.4706,0.0,1.5,60.0,2.1,'1111122,1111122,1111122' 
TCOON,ioos:station:TCOON:003:1,2013-11-01T02:42:00Z,26.8015,-97.4706,0.0,1.3,65.0,1.6,'11111222,11111222,11111222' 
TCOON,ioos:station:TCOON:003:1,2013-11-01T02:48:00Z,26.8015,-97.4706,0.0,1.3,57.0,1.6,'11111222,11111222,11111222' 
TCOON,ioos:station:TCOON:003:1,2013-11-01T02:54:00Z,26.8015,-97.4706,0.0,1.2,82.0,1.5,'11111222,11111222,11111222' 
TCOON,ioos:station:TCOON:003:1,2013-11-01T03:00:00Z,26.8015,-97.4706,0.0,0.9,82.0,1.4,'11111222,11111222,11111222' 
TCOON,ioos:station:TCOON:003:1,2013-11-01T03:06:00Z,26.8015,-97.4706,0.0,0.8,81.0,1.0,'11111222,11111222,11111222' 
TCOON,ioos:station:TCOON:003:1,2013-11-01T03:12:00Z,26.8015,-97.4706,0.0,1.0,101.0,1.2,'11111222,11111222,11111222' 
TCOON,ioos:station:TCOON:003:1,2013-11-01T03:18:00Z,26.8015,-97.4706,0.0,1.3,104.0,1.4,'11111222,11111222,11111222' 
TCOON,ioos:station:TCOON:003:1,2013-11-01T03:24:00Z,26.8015,-97.4706,0.0,1.2,104.0,1.4,'11111222,11111222,11111222' 
TCOON,ioos:station:TCOON:003:1,2013-11-01T03:30:00Z,26.8015,-97.4706,0.0,1.4,93.0,1.8,'11111222,11111222,11111222' 
TCOON,ioos:station:TCOON:003:1,2013-11-01T03:36:00Z,26.8015,-97.4706,0.0,1.3,99.0,1.7,'11111222,11111222,11111222' 
TCOON,ioos:station:TCOON:003:1,2013-11-01T03:42:00Z,26.8015,-97.4706,0.0,1.3,102.0,1.5,'11111222,11111222,11111222' 
TCOON,ioos:station:TCOON:003:1,2013-11-01T03:48:00Z,26.8015,-97.4706,0.0,1.0,100.0,1.5,'1111122,1111122,1111122' 
TCOON,ioos:station:TCOON:003:1,2013-11-01T03:54:00Z,26.8015,-97.4706,0.0,0.9,100.0,1.3,'11111222,11111222,11111222' 
TCOON,ioos:station:TCOON:003:1,2013-11-01T04:00:00Z,26.8015,-97.4706,0.0,1.2,117.0,1.4,'11111222,11111222,11111222' 
TCOON,ioos:station:TCOON:003:1,2013-11-01T04:06:00Z,26.8015,-97.4706,0.0,1.0,95.0,1.5,'11111222,11111222,11111222' 
TCOON,ioos:station:TCOON:003:1,2013-11-01T04:12:00Z,26.8015,-97.4706,0.0,0.7,69.0,0.9,'11111222,11111222,11111222' 
TCOON,ioos:station:TCOON:003:1,2013-11-01T04:18:00Z,26.8015,-97.4706,0.0,0.9,62.0,1.2,'11111222,11111222,11111222' 
TCOON,ioos:station:TCOON:003:1,2013-11-01T04:24:00Z,26.8015,-97.4706,0.0,0.5,80.0,1.0,'1111122,1111122,1111122' 
TCOON,ioos:station:TCOON:003:1,2013-11-01T04:30:00Z,26.8015,-97.4706,0.0,0.8,39.0,1.3,'11111222,11111222,11111222' 
TCOON,ioos:station:TCOON:003:1,2013-11-01T04:36:00Z,26.8015,-97.4706,0.0,1.0,26.0,1.5,'11111222,11111222,11111222' 
TCOON,ioos:station:TCOON:003:1,2013-11-01T04:42:00Z,26.8015,-97.4706,0.0,1.6,16.0,2.2,'11111222,11111222,11111222' 
TCOON,ioos:station:TCOON:003:1,2013-11-01T04:48:00Z,26.8015,-97.4706,0.0,1.7,8.0,2.1,'11111222,11111222,11111222' 
TCOON,ioos:station:TCOON:003:1,2013-11-01T04:54:00Z,26.8015,-97.4706,0.0,2.1,354.0,2.3,'11111222,11111222,11111222' 
TCOON,ioos:station:TCOON:003:1,2013-11-01T05:00:00Z,26.8015,-97.4706,0.0,1.9,3.0,2.2,'11111222,11111222,11111222' 
TCOON,ioos:station:TCOON:003:1,2013-11-01T05:06:00Z,26.8015,-97.4706,0.0,2.3,9.0,2.5,'11111222,11111222,11111222' 
TCOON,ioos:station:TCOON:003:1,2013-11-01T05:12:00Z,26.8015,-97.4706,0.0,2.2,5.0,2.5,'11111222,11111222,11111222' 
TCOON,ioos:station:TCOON:003:1,2013-11-01T05:18:00Z,26.8015,-97.4706,0.0,2.2,24.0,2.4,'11111222,11111222,11111222' 
TCOON,ioos:station:TCOON:003:1,2013-11-01T05:24:00Z,26.8015,-97.4706,0.0,2.6,23.0,2.9,'11111222,11111222,11111222' 
TCOON,ioos:station:TCOON:003:1,2013-11-01T05:30:00Z,26.8015,-97.4706,0.0,2.4,37.0,3.3,'11111222,11111222,11111222' 
TCOON,ioos:station:TCOON:003:1,2013-11-01T05:36:00Z,26.8015,-97.4706,0.0,3.1,30.0,3.6,'1111122,1111122,1111122' 
TCOON,ioos:station:TCOON:003:1,2013-11-01T05:42:00Z,26.8015,-97.4706,0.0,4.7,46.0,6.2,'11111222,11111222,11111222' 
TCOON,ioos:station:TCOON:003:1,2013-11-01T05:48:00Z,26.8015,-97.4706,0.0,5.1,60.0,6.2,'1111122,1111122,1111122' 
TCOON,ioos:station:TCOON:003:1,2013-11-01T05:54:00Z,26.8015,-97.4706,0.0,4.3,62.0,5.7,'11111222,11111222,11111222' 
TCOON,ioos:station:TCOON:003:1,2013-11-01T06:00:00Z,26.8015,-97.4706,0.0,4.5,70.0,5.5,'11111222,11111222,11111222' 
TCOON,ioos:station:TCOON:003:1,2013-11-01T06:06:00Z,26.8015,-97.4706,0.0,4.9,62.0,5.7,'11111222,11111222,11111222' 
TCOON,ioos:station:TCOON:003:1,2013-11-01T06:12:00Z,26.8015,-97.4706,0.0,4.6,69.0,5.8,'11111222,11111222,11111222' 
TCOON,ioos:station:TCOON:003:1,2013-11-01T06:18:00Z,26.8015,-97.4706,0.0,4.1,65.0,4.9,'11111222,11111222,11111222' 
TCOON,ioos:station:TCOON:003:1,2013-11-01T06:24:00Z,26.8015,-97.4706,0.0,4.3,65.0,5.7,'11111222,11111222,11111222' 
TCOON,ioos:station:TCOON:003:1,2013-11-01T06:30:00Z,26.8015,-97.4706,0.0,4.0,68.0,5.2,'11111222,11111222,11111222' 
TCOON,ioos:station:TCOON:003:1,2013-11-01T06:36:00Z,26.8015,-97.4706,0.0,4.0,69.0,4.9,'11111222,11111222,11111222' 
TCOON,ioos:station:TCOON:003:1,2013-11-01T06:42:00Z,26.8015,-97.4706,0.0,4.6,70.0,5.7,'1111122,1111122,1111122' 
TCOON,ioos:station:TCOON:003:1,2013-11-01T06:48:00Z,26.8015,-97.4706,0.0,4.6,72.0,5.4,'11111222,11111222,11111222' 
TCOON,ioos:station:TCOON:003:1,2013-11-01T06:54:00Z,26.8015,-97.4706,0.0,4.6,66.0,5.1,'11111222,11111222,11111222' 
TCOON,ioos:station:TCOON:003:1,2013-11-01T07:00:00Z,26.8015,-97.4706,0.0,5.0,70.0,5.8,'11111222,11111222,11111222' 
TCOON,ioos:station:TCOON:003:1,2013-11-01T07:06:00Z,26.8015,-97.4706,0.0,5.3,64.0,6.2,'11111222,11111222,11111222' 
TCOON,ioos:station:TCOON:003:1,2013-11-01T07:12:00Z,26.8015,-97.4706,0.0,4.6,66.0,6.2,'11111222,11111222,11111222' 
TCOON,ioos:station:TCOON:003:1,2013-11-01T07:18:00Z,26.8015,-97.4706,0.0,5.1,66.0,6.3,'11111222,11111222,11111222' 
TCOON,ioos:station:TCOON:003:1,2013-11-01T07:24:00Z,26.8015,-97.4706,0.0,5.3,71.0,7.2,'11111222,11111222,11111222' 
TCOON,ioos:station:TCOON:003:1,2013-11-01T07:30:00Z,26.8015,-97.4706,0.0,5.5,76.0,6.7,'11111222,11111222,11111222' 
TCOON,ioos:station:TCOON:003:1,2013-11-01T07:36:00Z,26.8015,-97.4706,0.0,5.1,81.0,6.3,'11111222,11111222,11111222' 
TCOON,ioos:station:TCOON:003:1,2013-11-01T07:42:00Z,26.8015,-97.4706,0.0,5.3,82.0,6.7,'11111222,11111222,11111222' 
TCOON,ioos:station:TCOON:003:1,2013-11-01T07:48:00Z,26.8015,-97.4706,0.0,5.7,80.0,6.2,'1111122,1111122,1111122' 
TCOON,ioos:station:TCOON:003:1,2013-11-01T07:54:00Z,26.8015,-97.4706,0.0,5.1,86.0,6.1,'11111222,11111222,11111222' 
TCOON,ioos:station:TCOON:003:1,2013-11-01T08:00:00Z,26.8015,-97.4706,0.0,4.9,82.0,6.3,'11111222,11111222,11111222' 
TCOON,ioos:station:TCOON:003:1,2013-11-01T08:06:00Z,26.8015,-97.4706,0.0,5.4,80.0,6.4,'11111222,11111222,11111222' 
TCOON,ioos:station:TCOON:003:1,2013-11-01T08:12:00Z,26.8015,-97.4706,0.0,5.2,83.0,6.4,'11111222,11111222,11111222' 
TCOON,ioos:station:TCOON:003:1,2013-11-01T08:18:00Z,26.8015,-97.4706,0.0,4.5,86.0,6.1,'11111222,11111222,11111222' 
TCOON,ioos:station:TCOON:003:1,2013-11-01T08:24:00Z,26.8015,-97.4706,0.0,5.2,86.0,5.7,'11111222,11111222,11111222' 
TCOON,ioos:station:TCOON:003:1,2013-11-01T08:30:00Z,26.8015,-97.4706,0.0,4.9,83.0,6.0,'11111222,11111222,11111222' 
TCOON,ioos:station:TCOON:003:1,2013-11-01T08:36:00Z,26.8015,-97.4706,0.0,4.6,80.0,5.7,'1111122,1111122,1111122' 
TCOON,ioos:station:TCOON:003:1,2013-11-01T08:42:00Z,26.8015,-97.4706,0.0,4.9,86.0,5.8,'11111222,11111222,11111222' 
TCOON,ioos:station:TCOON:003:1,2013-11-01T08:48:00Z,26.8015,-97.4706,0.0,5.1,80.0,6.2,'1111122,1111122,1111122' 
TCOON,ioos:station:TCOON:003:1,2013-11-01T08:54:00Z,26.8015,-97.4706,0.0,4.4,80.0,6.2,'11111222,11111222,11111222' 
TCOON,ioos:station:TCOON:003:1,2013-11-01T09:00:00Z,26.8015,-97.4706,0.0,4.6,73.0,5.6,'11111222,11111222,11111222' 
TCOON,ioos:station:TCOON:003:1,2013-11-01T09:06:00Z,26.8015,-97.4706,0.0,4.6,75.0,5.7,'11111222,11111222,11111222' 
TCOON,ioos:station:TCOON:003:1,2013-11-01T09:12:00Z,26.8015,-97.4706,0.0,4.6,78.0,5.4,'11111222,11111222,11111222' 
TCOON,ioos:station:TCOON:003:1,2013-11-01T09:18:00Z,26.8015,-97.4706,0.0,4.9,79.0,5.6,'11111222,11111222,11111222' 
TCOON,ioos:station:TCOON:003:1,2013-11-01T09:24:00Z,26.8015,-97.4706,0.0,4.5,84.0,5.8,'11111222,11111222,11111222' 
TCOON,ioos:station:TCOON:003:1,2013-11-01T09:30:00Z,26.8015,-97.4706,0.0,4.6,83.0,5.6,'11111222,11111222,11111222' 
TCOON,ioos:station:TCOON:003:1,2013-11-01T09:36:00Z,26.8015,-97.4706,0.0,4.6,84.0,5.6,'11111222,11111222,11111222' 
TCOON,ioos:station:TCOON:003:1,2013-11-01T09:42:00Z,26.8015,-97.4706,0.0,4.9,83.0,5.9,'11111222,11111222,11111222' 
TCOON,ioos:station:TCOON:003:1,2013-11-01T09:48:00Z,26.8015,-97.4706,0.0,4.8,84.0,5.6,'11111222,11111222,11111222' 
TCOON,ioos:station:TCOON:003:1,2013-11-01T09:54:00Z,26.8015,-97.4706,0.0,4.8,84.0,5.9,'11111222,11111222,11111222' 
TCOON,ioos:station:TCOON:003:1,2013-11-01T10:00:00Z,26.8015,-97.4706,0.0,4.8,82.0,5.6,'11111222,11111222,11111222' 
TCOON,ioos:station:TCOON:003:1,2013-11-01T10:06:00Z,26.8015,-97.4706,0.0,4.8,80.0,5.8,'11111222,11111222,11111222' 
TCOON,ioos:station:TCOON:003:1,2013-11-01T10:12:00Z,26.8015,-97.4706,0.0,4.4,76.0,5.2,'11111222,11111222,11111222' 
TCOON,ioos:station:TCOON:003:1,2013-11-01T10:18:00Z,26.8015,-97.4706,0.0,4.6,75.0,5.5,'11111222,11111222,11111222' 
TCOON,ioos:station:TCOON:003:1,2013-11-01T10:24:00Z,26.8015,-97.4706,0.0,4.6,76.0,5.3,'11111222,11111222,11111222' 
TCOON,ioos:station:TCOON:003:1,2013-11-01T10:30:00Z,26.8015,-97.4706,0.0,4.9,81.0,6.0,'11111222,11111222,11111222' 
TCOON,ioos:station:TCOON:003:1,2013-11-01T10:36:00Z,26.8015,-97.4706,0.0,4.6,80.0,5.7,'1111122,1111122,1111122' 
TCOON,ioos:station:TCOON:003:1,2013-11-01T10:42:00Z,26.8015,-97.4706,0.0,4.3,83.0,5.0,'11111222,11111222,11111222' 
TCOON,ioos:station:TCOON:003:1,2013-11-01T10:48:00Z,26.8015,-97.4706,0.0,4.2,89.0,5.2,'11111222,11111222,11111222' 
TCOON,ioos:station:TCOON:003:1,2013-11-01T10:54:00Z,26.8015,-97.4706,0.0,4.1,90.0,5.1,'1111122,1111122,1111122' 
TCOON,ioos:station:TCOON:003:1,2013-11-01T11:00:00Z,26.8015,-97.4706,0.0,4.9,90.0,5.6,'11111222,11111222,11111222' 
TCOON,ioos:station:TCOON:003:1,2013-11-01T11:06:00Z,26.8015,-97.4706,0.0,4.3,93.0,5.7,'11111222,11111222,11111222' 
TCOON,ioos:station:TCOON:003:1,2013-11-01T11:12:00Z,26.8015,-97.4706,0.0,4.6,91.0,5.5,'11111222,11111222,11111222' 
TCOON,ioos:station:TCOON:003:1,2013-11-01T11:18:00Z,26.8015,-97.4706,0.0,4.4,88.0,5.3,'11111222,11111222,11111222' 
TCOON,ioos:station:TCOON:003:1,2013-11-01T11:24:00Z,26.8015,-97.4706,0.0,4.3,85.0,4.8,'11111222,11111222,11111222' 
TCOON,ioos:station:TCOON:003:1,2013-11-01T11:30:00Z,26.8015,-97.4706,0.0,4.2,93.0,5.3,'11111222,11111222,11111222' 
TCOON,ioos:station:TCOON:003:1,2013-11-01T11:36:00Z,26.8015,-97.4706,0.0,4.1,93.0,4.8,'11111222,11111222,11111222' 
TCOON,ioos:station:TCOON:003:1,2013-11-01T11:42:00Z,26.8015,-97.4706,0.0,3.6,89.0,4.8,'11111222,11111222,11111222' 
TCOON,ioos:station:TCOON:003:1,2013-11-01T11:48:00Z,26.8015,-97.4706,0.0,4.1,90.0,4.6,'1111122,1111122,1111122' 
TCOON,ioos:station:TCOON:003:1,2013-11-01T11:54:00Z,26.8015,-97.4706,0.0,4.0,94.0,5.0,'11111222,11111222,11111222' 
TCOON,ioos:station:TCOON:003:1,2013-11-01T12:00:00Z,26.8015,-97.4706,0.0,4.5,96.0,5.1,'11111222,11111222,11111222' 
TCOON,ioos:station:TCOON:003:1,2013-11-01T12:06:00Z,26.8015,-97.4706,0.0,4.4,101.0,5.0,'11111222,11111222,11111222' 
TCOON,ioos:station:TCOON:003:1,2013-11-01T12:12:00Z,26.8015,-97.4706,0.0,4.5,100.0,5.5,'11111222,11111222,11111222' 
TCOON,ioos:station:TCOON:003:1,2013-11-01T12:18:00Z,26.8015,-97.4706,0.0,3.8,98.0,5.3,'11111222,11111222,11111222' 
TCOON,ioos:station:TCOON:003:1,2013-11-01T12:24:00Z,26.8015,-97.4706,0.0,4.1,100.0,4.6,'1111122,1111122,1111122' 
TCOON,ioos:station:TCOON:003:1,2013-11-01T12:30:00Z,26.8015,-97.4706,0.0,4.2,98.0,5.2,'11111222,11111222,11111222' 
TCOON,ioos:station:TCOON:003:1,2013-11-01T12:36:00Z,26.8015,-97.4706,0.0,4.7,104.0,5.6,'11111222,11111222,11111222' 
TCOON,ioos:station:TCOON:003:1,2013-11-01T12:42:00Z,26.8015,-97.4706,0.0,4.6,100.0,5.8,'11111222,11111222,11111222' 
TCOON,ioos:station:TCOON:003:1,2013-11-01T12:48:00Z,26.8015,-97.4706,0.0,4.1,100.0,5.1,'1111122,1111122,1111122' 
TCOON,ioos:station:TCOON:003:1,2013-11-01T12:54:00Z,26.8015,-97.4706,0.0,4.6,103.0,5.5,'11111222,11111222,11111222' 
TCOON,ioos:station:TCOON:003:1,2013-11-01T13:00:00Z,26.8015,-97.4706,0.0,4.7,103.0,5.6,'11111222,11111222,11111222' 
TCOON,ioos:station:TCOON:003:1,2013-11-01T13:06:00Z,26.8015,-97.4706,0.0,4.4,105.0,5.3,'11111222,11111222,11111222' 
TCOON,ioos:station:TCOON:003:1,2013-11-01T13:12:00Z,26.8015,-97.4706,0.0,4.9,108.0,5.7,'11111222,11111222,11111222' 
TCOON,ioos:station:TCOON:003:1,2013-11-01T13:18:00Z,26.8015,-97.4706,0.0,4.8,105.0,5.6,'11111222,11111222,11111222' 
TCOON,ioos:station:TCOON:003:1,2013-11-01T13:24:00Z,26.8015,-97.4706,0.0,4.2,106.0,5.5,'11111222,11111222,11111222' 
TCOON,ioos:station:TCOON:003:1,2013-11-01T13:30:00Z,26.8015,-97.4706,0.0,3.9,100.0,4.9,'11111222,11111222,11111222' 
TCOON,ioos:station:TCOON:003:1,2013-11-01T13:36:00Z,26.8015,-97.4706,0.0,4.6,100.0,5.1,'1111122,1111122,1111122' 
TCOON,ioos:station:TCOON:003:1,2013-11-01T13:42:00Z,26.8015,-97.4706,0.0,4.2,101.0,5.7,'11111222,11111222,11111222' 
TCOON,ioos:station:TCOON:003:1,2013-11-01T13:48:00Z,26.8015,-97.4706,0.0,5.1,110.0,5.7,'1111122,1111122,1111122' 
TCOON,ioos:station:TCOON:003:1,2013-11-01T13:54:00Z,26.8015,-97.4706,0.0,5.5,111.0,6.4,'11111222,11111222,11111222' 
TCOON,ioos:station:TCOON:003:1,2013-11-01T14:00:00Z,26.8015,-97.4706,0.0,6.1,110.0,7.1,'11111222,11111222,11111222' 
TCOON,ioos:station:TCOON:003:1,2013-11-01T14:06:00Z,26.8015,-97.4706,0.0,5.6,111.0,7.1,'11111222,11111222,11111222' 
TCOON,ioos:station:TCOON:003:1,2013-11-01T14:12:00Z,26.8015,-97.4706,0.0,5.9,111.0,7.2,'11111222,11111222,11111222' 
TCOON,ioos:station:TCOON:003:1,2013-11-01T14:18:00Z,26.8015,-97.4706,0.0,5.7,117.0,7.1,'11111222,11111222,11111222' 
TCOON,ioos:station:TCOON:003:1,2013-11-01T14:24:00Z,26.8015,-97.4706,0.0,6.1,113.0,6.8,'11111222,11111222,11111222' 
TCOON,ioos:station:TCOON:003:1,2013-11-01T14:30:00Z,26.8015,-97.4706,0.0,5.3,116.0,6.6,'11111222,11111222,11111222' 
TCOON,ioos:station:TCOON:003:1,2013-11-01T14:36:00Z,26.8015,-97.4706,0.0,5.1,120.0,6.7,'1111122,1111122,1111122' 
TCOON,ioos:station:TCOON:003:1,2013-11-01T14:42:00Z,26.8015,-97.4706,0.0,6.1,118.0,7.1,'11111222,11111222,11111222' 
TCOON,ioos:station:TCOON:003:1,2013-11-01T14:48:00Z,26.8015,-97.4706,0.0,6.7,121.0,7.7,'11111222,11111222,11111222' 
TCOON,ioos:station:TCOON:003:1,2013-11-01T14:54:00Z,26.8015,-97.4706,0.0,6.2,120.0,7.2,'1111122,1111122,1111122' 
TCOON,ioos:station:TCOON:003:1,2013-11-01T15:00:00Z,26.8015,-97.4706,0.0,5.7,116.0,6.5,'11111222,11111222,11111222' 
TCOON,ioos:station:TCOON:003:1,2013-11-01T15:06:00Z,26.8015,-97.4706,0.0,6.0,115.0,6.6,'11111222,11111222,11111222' 
TCOON,ioos:station:TCOON:003:1,2013-11-01T15:12:00Z,26.8015,-97.4706,0.0,5.5,116.0,7.0,'11111222,11111222,11111222' 
TCOON,ioos:station:TCOON:003:1,2013-11-01T15:18:00Z,26.8015,-97.4706,0.0,5.4,116.0,6.5,'11111222,11111222,11111222' 
TCOON,ioos:station:TCOON:003:1,2013-11-01T15:24:00Z,26.8015,-97.4706,0.0,5.0,115.0,6.4,'11111222,11111222,11111222' 
TCOON,ioos:station:TCOON:003:1,2013-11-01T15:30:00Z,26.8015,-97.4706,0.0,6.0,119.0,6.8,'11111222,11111222,11111222' 
TCOON,ioos:station:TCOON:003:1,2013-11-01T15:36:00Z,26.8015,-97.4706,0.0,5.9,118.0,7.0,'11111222,11111222,11111222' 
TCOON,ioos:station:TCOON:003:1,2013-11-01T15:42:00Z,26.8015,-97.4706,0.0,5.9,113.0,7.0,'11111222,11111222,11111222' 
TCOON,ioos:station:TCOON:003:1,2013-11-01T15:48:00Z,26.8015,-97.4706,0.0,5.1,120.0,6.7,'1111122,1111122,1111122' 
TCOON,ioos:station:TCOON:003:1,2013-11-01T15:54:00Z,26.8015,-97.4706,0.0,6.0,123.0,6.8,'11111222,11111222,11111222' 
TCOON,ioos:station:TCOON:003:1,2013-11-01T16:00:00Z,26.8015,-97.4706,0.0,5.7,125.0,6.7,'11111222,11111222,11111222' 
TCOON,ioos:station:TCOON:003:1,2013-11-01T16:06:00Z,26.8015,-97.4706,0.0,5.7,120.0,6.6,'11111222,11111222,11111222' 
TCOON,ioos:station:TCOON:003:1,2013-11-01T16:12:00Z,26.8015,-97.4706,0.0,6.2,120.0,7.0,'11111222,11111222,11111222' 
TCOON,ioos:station:TCOON:003:1,2013-11-01T16:18:00Z,26.8015,-97.4706,0.0,5.7,118.0,6.4,'11111222,11111222,11111222' 
TCOON,ioos:station:TCOON:003:1,2013-11-01T16:24:00Z,26.8015,-97.4706,0.0,5.5,121.0,6.6,'11111222,11111222,11111222' 
TCOON,ioos:station:TCOON:003:1,2013-11-01T16:30:00Z,26.8015,-97.4706,0.0,5.6,123.0,6.3,'11111222,11111222,11111222' 
TCOON,ioos:station:TCOON:003:1,2013-11-01T16:36:00Z,26.8015,-97.4706,0.0,5.6,127.0,6.4,'11111222,11111222,11111222' 
TCOON,ioos:station:TCOON:003:1,2013-11-01T16:42:00Z,26.8015,-97.4706,0.0,5.9,128.0,6.6,'11111222,11111222,11111222' 
TCOON,ioos:station:TCOON:003:1,2013-11-01T16:48:00Z,26.8015,-97.4706,0.0,5.7,130.0,6.2,'1111122,1111122,1111122' 
TCOON,ioos:station:TCOON:003:1,2013-11-01T16:54:00Z,26.8015,-97.4706,0.0,5.4,130.0,6.1,'11111222,11111222,11111222' 
TCOON,ioos:station:TCOON:003:1,2013-11-01T17:00:00Z,26.8015,-97.4706,0.0,5.8,124.0,6.6,'11111222,11111222,11111222' 
TCOON,ioos:station:TCOON:003:1,2013-11-01T17:06:00Z,26.8015,-97.4706,0.0,6.1,126.0,6.7,'11111222,11111222,11111222' 
TCOON,ioos:station:TCOON:003:1,2013-11-01T17:12:00Z,26.8015,-97.4706,0.0,6.0,131.0,6.8,'11111222,11111222,11111222' 
TCOON,ioos:station:TCOON:003:1,2013-11-01T17:18:00Z,26.8015,-97.4706,0.0,6.1,125.0,6.7,'11111222,11111222,11111222' 
TCOON,ioos:station:TCOON:003:1,2013-11-01T17:24:00Z,26.8015,-97.4706,0.0,5.7,130.0,6.7,'1111122,1111122,1111122' 
TCOON,ioos:station:TCOON:003:1,2013-11-01T17:30:00Z,26.8015,-97.4706,0.0,5.5,127.0,6.7,'11111222,11111222,11111222' 
TCOON,ioos:station:TCOON:003:1,2013-11-01T17:36:00Z,26.8015,-97.4706,0.0,5.6,126.0,6.6,'11111222,11111222,11111222' 
TCOON,ioos:station:TCOON:003:1,2013-11-01T17:42:00Z,26.8015,-97.4706,0.0,5.9,125.0,7.2,'11111222,11111222,11111222' 
TCOON,ioos:station:TCOON:003:1,2013-11-01T17:48:00Z,26.8015,-97.4706,0.0,6.7,130.0,7.2,'1111122,1111122,1111122' 
TCOON,ioos:station:TCOON:003:1,2013-11-01T17:54:00Z,26.8015,-97.4706,0.0,6.2,124.0,6.9,'11111222,11111222,11111222' 
TCOON,ioos:station:TCOON:003:1,2013-11-01T18:00:00Z,26.8015,-97.4706,0.0,6.1,122.0,7.3,'11111222,11111222,11111222' 
TCOON,ioos:station:TCOON:003:1,2013-11-01T18:06:00Z,26.8015,-97.4706,0.0,6.0,125.0,7.3,'11111222,11111222,11111222' 
TCOON,ioos:station:TCOON:003:1,2013-11-01T18:12:00Z,26.8015,-97.4706,0.0,6.0,127.0,7.0,'11111222,11111222,11111222' 
TCOON,ioos:station:TCOON:003:1,2013-11-01T18:18:00Z,26.8015,-97.4706,0.0,5.3,126.0,6.4,'11111222,11111222,11111222' 
TCOON,ioos:station:TCOON:003:1,2013-11-01T18:24:00Z,26.8015,-97.4706,0.0,5.9,124.0,6.7,'11111222,11111222,11111222' 
TCOON,ioos:station:TCOON:003:1,2013-11-01T18:30:00Z,26.8015,-97.4706,0.0,5.9,123.0,6.8,'11111222,11111222,11111222' 
TCOON,ioos:station:TCOON:003:1,2013-11-01T18:36:00Z,26.8015,-97.4706,0.0,5.7,130.0,7.2,'1111122,1111122,1111122' 
TCOON,ioos:station:TCOON:003:1,2013-11-01T18:42:00Z,26.8015,-97.4706,0.0,6.2,127.0,7.2,'11111222,11111222,11111222' 
TCOON,ioos:station:TCOON:003:1,2013-11-01T18:48:00Z,26.8015,-97.4706,0.0,6.2,120.0,7.2,'1111122,1111122,1111122' 
TCOON,ioos:station:TCOON:003:1,2013-11-01T18:54:00Z,26.8015,-97.4706,0.0,6.0,130.0,7.0,'11111222,11111222,11111222' 
TCOON,ioos:station:TCOON:003:1,2013-11-01T19:00:00Z,26.8015,-97.4706,0.0,6.5,127.0,7.3,'11111222,11111222,11111222' 
TCOON,ioos:station:TCOON:003:1,2013-11-01T19:06:00Z,26.8015,-97.4706,0.0,7.1,125.0,8.5,'11111222,11111222,11111222' 
TCOON,ioos:station:TCOON:003:1,2013-11-01T19:12:00Z,26.8015,-97.4706,0.0,6.2,134.0,8.1,'11111222,11111222,11111222' 
TCOON,ioos:station:TCOON:003:1,2013-11-01T19:18:00Z,26.8015,-97.4706,0.0,6.6,133.0,7.9,'11111222,11111222,11111222' 
TCOON,ioos:station:TCOON:003:1,2013-11-01T19:24:00Z,26.8015,-97.4706,0.0,6.7,126.0,8.0,'11111222,11111222,11111222' 
TCOON,ioos:station:TCOON:003:1,2013-11-01T19:30:00Z,26.8015,-97.4706,0.0,7.2,130.0,8.2,'1111122,1111122,1111122' 
TCOON,ioos:station:TCOON:003:1,2013-11-01T19:36:00Z,26.8015,-97.4706,0.0,6.8,124.0,7.7,'11111222,11111222,11111222' 
TCOON,ioos:station:TCOON:003:1,2013-11-01T19:42:00Z,26.8015,-97.4706,0.0,6.6,132.0,7.8,'11111222,11111222,11111222' 
TCOON,ioos:station:TCOON:003:1,2013-11-01T19:48:00Z,26.8015,-97.4706,0.0,6.7,136.0,7.9,'11111222,11111222,11111222' 
TCOON,ioos:station:TCOON:003:1,2013-11-01T19:54:00Z,26.8015,-97.4706,0.0,6.7,138.0,8.2,'11111222,11111222,11111222' 
TCOON,ioos:station:TCOON:003:1,2013-11-01T20:00:00Z,26.8015,-97.4706,0.0,6.4,134.0,7.8,'11111222,11111222,11111222' 
TCOON,ioos:station:TCOON:003:1,2013-11-01T20:06:00Z,26.8015,-97.4706,0.0,6.7,143.0,7.6,'11111222,11111222,11111222' 
TCOON,ioos:station:TCOON:003:1,2013-11-01T20:12:00Z,26.8015,-97.4706,0.0,6.4,141.0,7.5,'11111222,11111222,11111222' 
TCOON,ioos:station:TCOON:003:1,2013-11-01T20:18:00Z,26.8015,-97.4706,0.0,5.7,151.0,6.8,'11111222,11111222,11111222' 
TCOON,ioos:station:TCOON:003:1,2013-11-01T20:24:00Z,26.8015,-97.4706,0.0,6.0,149.0,6.6,'11111222,11111222,11111222' 